Date String (YYYY-MM-DD hh:mm:ss) UTC,Instrument flags,Ambient pressure (hPa),Sample flow (lpm),Bypass flow (lpm),Sample temperature (°C),Ambient temperature (°C),ASC tube jacket temperature (°C),LED temperature (°C),Box temperature (°C),Sample RH (%),Span deviation,Mass concentration (μg/m³),Mass concentration (μg/m³),Mass concentration (μg/m³)
DateTimeUTC,F1_M11,P_M11,Q1_M11,Q2_M11,T1_M11,T2_M11,T3_M11,T4_M11,T5_M11,U1_M11,ZSPAN_M11,X0_M11,X2_M11,X1_M11
2022-12-10 02:00:00,,0822.2,4.99,0.00,21.6,19.7,00.0,30.6,23.4,09.8,0000.0,0003.99,0001.31,0001.05
2022-12-10 02:01:00,,0822.2,4.99,0.00,21.6,19.6,00.0,30.6,23.3,09.9,0000.0,0003.36,0001.31,0001.07
2022-12-10 02:02:00,,0822.2,5.03,0.00,21.6,19.7,00.0,30.6,23.3,09.8,0000.0,0002.69,0001.30,0001.07
2022-12-10 02:03:00,,0822.2,4.99,0.00,21.6,19.7,00.0,30.6,23.4,09.9,0000.0,0002.67,0001.29,0001.07
2022-12-10 02:04:00,,0822.2,4.98,0.00,21.6,19.8,00.0,30.5,23.3,09.8,0000.0,0002.72,0001.30,0001.07
2022-12-10 02:05:00,,0822.3,5.00,0.00,21.6,19.7,00.0,30.5,23.3,09.8,0000.0,0002.89,0001.37,0001.08
2022-12-10 02:06:00,,0822.3,5.02,0.00,21.5,19.6,00.0,30.5,23.2,09.9,0000.0,0002.93,0001.38,0001.09
2022-12-10 02:07:00,,0822.3,4.99,0.00,21.5,19.5,00.0,30.5,23.2,09.9,0000.0,0002.92,0001.37,0001.10
2022-12-10 02:08:00,,0822.2,4.99,0.00,21.5,19.4,00.0,30.5,23.1,09.9,0000.0,0003.09,0001.44,0001.11
2022-12-10 02:09:00,,0822.3,5.03,0.00,21.4,19.4,00.0,30.4,23.1,09.9,0000.0,0002.46,0001.42,0001.10
2022-12-10 02:10:00,,0822.3,4.99,0.00,21.4,19.4,00.0,30.4,23.1,09.9,0000.0,0002.47,0001.43,0001.10
2022-12-10 02:11:00,,0822.4,4.98,0.00,21.4,19.3,00.0,30.4,23.0,09.8,0000.0,0002.62,0001.48,0001.11
2022-12-10 02:12:00,,0822.3,5.03,0.00,21.4,19.3,00.0,30.4,23.0,09.8,0000.0,0002.70,0001.49,0001.09
2022-12-10 02:13:00,,0822.4,4.99,0.00,21.3,19.2,00.0,30.3,23.0,09.8,0000.0,0002.82,0001.52,0001.09
2022-12-10 02:14:00,,0822.4,4.99,0.00,21.3,19.2,00.0,30.3,23.0,09.8,0000.0,0002.90,0001.55,0001.08
2022-12-10 02:15:00,,0822.4,5.00,0.00,21.3,19.2,00.0,30.3,23.0,09.8,0000.0,0002.85,0001.53,0001.07
2022-12-10 02:16:00,,0822.3,5.03,0.00,21.3,19.2,00.0,30.3,22.9,09.8,0000.0,0002.75,0001.47,0001.05
2022-12-10 02:17:00,,0822.4,4.99,0.00,21.2,19.2,00.0,30.3,22.9,09.9,0000.0,0002.66,0001.43,0001.04
2022-12-10 02:18:00,,0822.4,4.98,0.00,21.2,19.2,00.0,30.2,22.8,09.8,0000.0,0002.57,0001.41,0001.03
2022-12-10 02:19:00,,0822.4,5.02,0.00,21.2,19.1,00.0,30.2,22.8,09.8,0000.0,0002.46,0001.37,0001.03
2022-12-10 02:20:00,,0822.4,4.98,0.00,21.2,19.1,00.0,30.2,22.8,09.8,0000.0,0002.09,0001.32,0001.02
2022-12-10 02:21:00,,0822.5,5.03,0.00,21.1,19.1,00.0,30.1,22.8,09.8,0000.0,0002.09,0001.32,0001.01
2022-12-10 02:22:00,,0822.5,4.98,0.00,21.1,19.1,00.0,30.1,22.8,09.8,0000.0,0002.30,0001.33,0001.01
2022-12-10 02:23:00,,0822.4,4.99,0.00,21.1,19.2,00.0,30.1,22.8,09.7,0000.0,0002.24,0001.29,0001.00
2022-12-10 02:24:00,,0822.4,5.03,0.00,21.1,19.2,00.0,30.1,22.8,09.7,0000.0,0002.19,0001.27,0000.99
2022-12-10 02:25:00,,0822.4,4.98,0.00,21.1,19.3,00.0,30.1,22.8,09.8,0000.0,0002.13,0001.23,0000.99
2022-12-10 02:26:00,,0822.4,5.00,0.00,21.1,19.3,00.0,30.0,22.8,09.8,0000.0,0002.20,0001.25,0000.97
2022-12-10 02:27:00,,0822.4,5.02,0.00,21.1,19.3,00.0,30.0,22.8,09.8,0000.0,0002.10,0001.24,0000.97
2022-12-10 02:28:00,,0822.4,4.99,0.00,21.1,19.3,00.0,30.0,22.8,09.7,0000.0,0002.06,0001.22,0000.97
2022-12-10 02:29:00,,0822.4,5.02,0.00,21.1,19.2,00.0,30.0,22.8,09.7,0000.0,0002.12,0001.24,0000.96
2022-12-10 02:30:00,,0822.4,4.98,0.00,21.0,19.2,00.0,30.0,22.8,09.7,0000.0,0002.17,0001.26,0000.96
2022-12-10 02:31:00,,0822.4,5.00,0.00,21.0,19.2,00.0,30.0,22.7,09.7,0000.0,0002.23,0001.28,0000.95
2022-12-10 02:32:00,,0822.5,5.01,0.00,21.0,19.2,00.0,30.0,22.7,09.7,0000.0,0002.25,0001.28,0000.94
2022-12-10 02:33:00,,0822.5,4.98,0.00,21.1,19.7,00.0,29.9,22.9,09.8,0000.0,0002.19,0001.26,0000.93
2022-12-10 02:34:00,,0822.5,5.01,0.00,21.2,20.8,00.0,29.9,23.1,09.8,0000.0,0002.04,0001.23,0000.92
2022-12-10 02:35:00,,0822.6,5.00,0.00,21.3,21.6,00.0,30.0,23.3,09.7,0000.0,0002.18,0001.29,0000.92
2022-12-10 02:36:00,,0822.5,5.01,0.00,21.3,21.3,00.0,30.0,23.3,09.7,0000.0,0002.14,0001.29,0000.92
2022-12-10 02:37:00,,0822.5,5.02,0.00,21.3,20.8,00.0,30.0,23.2,09.7,0000.0,0002.04,0001.26,0000.93
2022-12-10 02:38:00,,0822.5,5.00,0.00,21.3,20.3,00.0,30.1,23.1,09.6,0000.0,0002.07,0001.28,0000.93
2022-12-10 02:39:00,,0822.5,4.99,0.00,21.3,20.0,00.0,30.1,23.1,09.7,0000.0,0002.06,0001.27,0000.92
2022-12-10 02:40:00,,0822.5,4.98,0.00,21.3,19.8,00.0,30.1,23.0,09.6,0000.0,0002.03,0001.26,0000.92
2022-12-10 02:41:00,,0822.5,5.02,0.00,21.3,19.6,00.0,30.1,23.0,09.6,0000.0,0001.99,0001.24,0000.93
2022-12-10 02:42:00,,0822.4,5.00,0.00,21.2,19.4,00.0,30.1,22.9,09.7,0000.0,0002.04,0001.24,0000.93
2022-12-10 02:43:00,,0822.4,4.98,0.00,21.2,19.3,00.0,30.0,22.9,09.7,0000.0,0002.15,0001.27,0000.94
2022-12-10 02:44:00,,0822.4,5.03,0.00,21.1,19.2,00.0,30.0,22.8,09.7,0000.0,0002.15,0001.31,0000.94
2022-12-10 02:45:00,,0822.3,4.99,0.00,21.1,19.1,00.0,30.0,22.8,09.7,0000.0,0002.13,0001.32,0000.94
2022-12-10 02:46:00,,0822.3,5.00,0.00,21.1,19.0,00.0,30.0,22.7,09.7,0000.0,0002.03,0001.30,0000.94
2022-12-10 02:47:00,,0822.3,5.00,0.00,21.0,18.9,00.0,30.0,22.7,09.7,0000.0,0001.95,0001.27,0000.94
2022-12-10 02:48:00,,0822.3,5.01,0.00,21.0,18.9,00.0,30.0,22.6,09.7,0000.0,0002.06,0001.32,0000.95
2022-12-10 02:49:00,,0822.4,4.99,0.00,20.9,18.9,00.0,29.9,22.6,09.8,0000.0,0002.10,0001.31,0000.96
2022-12-10 02:50:00,,0822.4,5.00,0.00,20.9,18.9,00.0,29.9,22.6,09.8,0000.0,0002.12,0001.32,0000.96
2022-12-10 02:51:00,,0822.4,5.01,0.00,20.9,18.8,00.0,29.9,22.6,09.8,0000.0,0002.20,0001.36,0000.96
2022-12-10 02:52:00,,0822.3,4.98,0.00,20.9,18.7,00.0,29.9,22.5,09.7,0000.0,0002.21,0001.36,0000.96
2022-12-10 02:53:00,,0822.4,5.02,0.00,20.8,18.7,00.0,29.8,22.5,09.8,0000.0,0002.19,0001.36,0000.97
2022-12-10 02:54:00,,0822.4,5.02,0.00,20.8,18.8,00.0,29.8,22.5,09.8,0000.0,0002.09,0001.34,0000.98
2022-12-10 02:55:00,,0822.5,4.99,0.00,20.9,20.0,00.0,29.8,22.7,09.8,0000.0,0002.06,0001.31,0000.97
2022-12-10 02:56:00,,0822.3,4.99,0.00,21.0,21.1,00.0,29.8,23.0,09.6,0000.0,0002.34,0001.33,0000.98
2022-12-10 02:57:00,,0822.3,4.99,0.00,21.1,21.1,00.0,29.8,23.1,09.5,0000.0,0002.33,0001.32,0000.98
2022-12-10 02:58:00,,0822.4,5.00,0.00,21.1,20.5,00.0,29.9,23.0,09.6,0000.0,0002.29,0001.30,0000.97
2022-12-10 02:59:00,,0822.4,5.02,0.00,21.1,20.1,00.0,29.9,22.9,09.7,0000.0,0002.27,0001.31,0000.98
